DW9955 Weather Reports


time (UTC)temp
F
wind
direction
speed
knots
gust
knots
rain 1hr
in
rain 24hr
in
rain mn
in
humidity
%
barometer
mb
20260906220023 90 18 4.3 8.7 0.00 0.00 0.00 25 1001.9
20260906214524 90 342 6.1 9.6 0.00 0.00 0.00 27 1001.8
20260906213020 90 23 4.3 8.7 0.00 0.00 0.00 27 1002.1
20260906211515 89 349 4.3 7.8 0.00 0.00 0.00 27 1002.6
20260906210014 89 18 5.2 10.4 0.00 0.00 0.00 30 1002.9
20260906204511 89 330 5.2 10.4 0.00 0.00 0.00 30 1003.0
20260906203010 88 9 5.2 11.3 0.00 0.00 0.00 32 1003.3
20260906201508 88 12 5.2 10.4 0.00 0.00 0.00 32 1003.4
20260906200004 87 332 5.2 8.7 0.00 0.00 0.00 31 1003.7
20260906194603 86 346 3.5 8.7 0.00 0.00 0.00 32 1003.9
20260906193057 85 8 3.5 9.6 0.00 0.00 0.00 36 1004.1
20260906191553 84 359 4.3 7.8 0.00 0.00 0.00 35 1004.4
20260906190049 83 10 2.6 10.4 0.00 0.00 0.00 38 1004.8
20260906184552 81 325 2.6 7.8 0.00 0.00 0.00 39 1005.2
20260906183041 80 354 3.5 5.2 0.00 0.00 0.00 41 1005.5
20260906181537 79 323 1.7 4.3 0.00 0.00 0.00 45 1005.7
20260906180054 78 312 2.6 5.2 0.00 0.00 0.00 48 1006.1
20260906174534 77 274 3.5 7.8 0.00 0.00 0.00 45 1006.5
20260906173024 76 285 1.7 3.5 0.00 0.00 0.00 47 1006.8
20260906171520 75 359 1.7 4.3 0.00 0.00 0.00 47 1007.1
20260906170017 75 19 1.7 4.3 0.00 0.00 0.00 48 1007.4
20260906164512 74 32 0.0 3.5 0.00 0.00 0.00 50 1007.6
20260906163008 73 26 1.7 5.2 0.00 0.00 0.00 51 1007.8
20260906161510 72 44 2.6 6.1 0.00 0.00 0.00 52 1007.8
20260906154600 70 25 3.5 7.0 0.00 0.00 0.00 55 1008.0
20260906153053 70 35 2.6 4.3 0.00 0.00 0.00 56 1008.0
20260906151550 69 114 1.7 5.2 0.00 0.00 0.00 56 1008.0
20260906150046 67 121 1.7 3.5 0.00 0.00 0.00 58 1008.1
20260906144541 65 131 0.9 4.3 0.00 0.00 0.00 60 1008.2
20260906143038 61 182 2.6 4.3 0.00 0.00 0.00 66 1008.3
20260906141538 59 209 0.0 1.7 0.00 0.00 0.00 70 1008.3
20260906140033 58 208 0.0 1.7 0.00 0.00 0.00 71 1008.3
20260906134528 56 209 0.0 0.0 0.00 0.00 0.00 72 1008.2
20260906133021 54 208 0.0 1.7 0.00 0.00 0.00 73 1008.2
20260906131531 52 208 0.0 0.0 0.00 0.00 0.00 74 1008.2
20260906130015 54 208 0.0 1.7 0.00 0.00 0.00 71 1008.0
20260906124514 53 207 1.7 3.5 0.00 0.00 0.00 72 1008.0
20260906123013 52 208 2.6 6.1 0.00 0.00 0.00 74 1007.9
20260906121513 51 237 2.6 4.3 0.00 0.00 0.00 76 1007.9
20260906120011 51 237 0.0 4.3 0.00 0.00 0.00 74 1008.0
20260906114510 51 237 1.7 3.5 0.00 0.00 0.00 75 1007.9
20260906113007 51 237 0.0 0.9 0.00 0.00 0.00 72 1007.6
20260906111506 52 237 0.0 0.9 0.00 0.00 0.00 73 1007.5
20260906110004 53 237 0.0 3.5 0.00 0.00 0.00 73 1007.3
20260906104504 52 237 0.0 6.1 0.00 0.00 0.00 73 1007.3
20260906103101 53 251 1.7 4.3 0.00 0.00 0.00 70 1007.2
20260906101558 54 252 0.0 1.7 0.00 0.00 0.00 69 1007.1
20260906100055 54 251 1.7 3.5 0.00 0.00 0.00 68 1007.2
20260906094555 55 252 0.0 4.3 0.00 0.00 0.00 68 1007.1
20260906093052 55 252 0.9 2.6 0.00 0.00 0.00 68 1007.2
20260906091551 56 252 0.0 1.7 0.00 0.00 0.00 67 1007.2
20260906090055 56 252 0.0 0.9 0.00 0.00 0.00 67 1007.2
20260906084551 56 252 0.0 2.6 0.00 0.00 0.00 67 1007.3
20260906083045 57 252 0.0 3.5 0.00 0.00 0.00 66 1007.6
20260906081540 59 252 0.9 4.3 0.00 0.00 0.00 65 1007.6
20260906080038 60 253 1.7 6.1 0.00 0.00 0.00 62 1007.9
20260906074536 60 303 1.7 4.3 0.00 0.00 0.00 62 1007.9
20260906073039 61 328 0.0 1.7 0.00 0.00 0.00 59 1008.1
20260906071529 62 328 0.0 1.7 0.00 0.00 0.00 56 1007.9
20260906070028 62 328 0.0 1.7 0.00 0.00 0.00 58 1008.0
20260906064527 62 328 0.0 1.7 0.00 0.00 0.00 58 1008.2
20260906063025 63 359 0.0 0.9 0.00 0.00 0.00 56 1008.3
20260906061524 63 359 0.0 1.7 0.00 0.00 0.00 57 1008.4
20260906060025 63 328 0.0 0.9 0.00 0.00 0.00 55 1008.3
20260906054520 64 328 0.0 0.9 0.00 0.00 0.00 53 1008.4
20260906053020 65 328 0.0 2.6 0.00 0.00 0.00 50 1008.5
20260906051520 66 328 0.0 0.9 0.00 0.00 0.00 50 1008.4
20260906050019 66 328 0.0 0.9 0.00 0.00 0.00 53 1008.4
20260906044518 66 328 0.0 1.7 0.00 0.00 0.00 47 1008.7
20260906043027 67 328 0.0 0.9 0.00 0.00 0.00 45 1008.5
20260906041517 66 328 0.0 0.0 0.00 0.00 0.00 47 1008.3
20260906040019 68 328 0.0 0.9 0.00 0.00 0.00 44 1008.2
20260906034526 70 328 0.9 3.5 0.00 0.00 0.00 42 1008.1
20260906033023 70 305 0.0 0.9 0.00 0.00 0.00 41 1007.9
20260906031511 71 305 0.0 2.6 0.00 0.00 0.00 40 1007.8
20260906030010 71 359 0.9 3.5 0.00 0.00 0.00 41 1007.8
20260906024508 71 305 0.0 3.5 0.00 0.00 0.00 40 1007.5
20260906023007 71 305 0.9 2.6 0.00 0.00 0.00 40 1007.3
20260906021507 72 304 0.9 4.3 0.00 0.00 0.00 39 1007.2
20260906020006 74 311 3.5 8.7 0.00 0.00 0.00 38 1006.9
20260906014515 74 296 3.5 7.8 0.00 0.00 0.00 38 1006.9
20260906013008 75 304 4.3 7.8 0.00 0.00 0.00 36 1006.7
20260906011505 77 308 5.2 10.4 0.00 0.00 0.00 35 1006.6
20260906010004 79 322 6.1 9.6 0.00 0.00 0.00 33 1006.5
20260906004504 81 304 7.0 10.4 0.00 0.00 0.00 32 1006.5
20260906003003 82 325 4.3 8.7 0.00 0.00 0.00 30 1006.2
20260906001502 83 359 3.5 7.0 0.00 0.00 0.00 29 1006.3
20260906000002 83 354 2.6 7.0 0.00 0.00 0.00 29 1006.2
20260905234501 83 354 2.6 7.0 0.00 0.00 0.00 30 1006.2
20260905233000 83 338 3.5 8.7 0.00 0.00 0.00 29 1006.1
20260905231600 83 317 3.5 8.7 0.00 0.00 0.00 28 1006.1
20260905230059 84 350 6.1 9.6 0.00 0.00 0.00 28 1006.0
20260905224557 83 327 3.5 7.0 0.00 0.00 0.00 29 1006.1
20260905223057 83 339 2.6 10.4 0.00 0.00 0.00 30 1006.1
20260905221554 83 12 0.9 8.7 0.00 0.00 0.00 28 1006.3